| time (UTC) | temp C | wind direction | speed KPH | gust KPH | rain 1hr cm | rain 24hr cm | rain mn cm | humidity % | barometer mb |
| 20260904010108 | 11 | 222 | 8.0 | 14.5 | 0.08 | 0.18 | 0.08 | 93 | 1027.1 |
| 20260904004550 | 11 | 240 | 8.0 | 20.9 | 0.08 | 0.15 | 0.08 | 93 | 1027.2 |
| 20260904003048 | 11 | 212 | 9.7 | 29.0 | 0.05 | 0.13 | 0.05 | 93 | 1027.0 |
| 20260904001547 | 11 | 249 | 9.7 | 19.3 | 0.05 | 0.13 | 0.05 | 93 | 1026.9 |
| 20260904000100 | 11 | 235 | 4.8 | 14.5 | 0.00 | 0.08 | 0.00 | 93 | 1026.8 |
| 20260903234604 | 11 | 227 | 8.0 | 16.1 | 0.00 | 0.08 | 0.00 | 92 | 1026.9 |
| 20260903233057 | 12 | 17 | 8.0 | 16.1 | 0.00 | 0.08 | 0.00 | 89 | 1026.7 |
| 20260903231558 | 12 | 16 | 4.8 | 12.9 | 0.00 | 0.08 | 0.00 | 88 | 1027.1 |
| 20260903230057 | 12 | 15 | 4.8 | 17.7 | 0.00 | 0.08 | 0.00 | 88 | 1027.1 |
| 20260903224602 | 12 | 15 | 6.4 | 17.7 | 0.00 | 0.08 | 0.00 | 88 | 1026.3 |
| 20260903223045 | 12 | 15 | 8.0 | 17.7 | 0.00 | 0.08 | 0.00 | 87 | 1026.6 |
| 20260903221556 | 12 | 17 | 9.7 | 17.7 | 0.00 | 0.08 | 0.00 | 88 | 1026.0 |
| 20260903220124 | 12 | 15 | 8.0 | 19.3 | 0.00 | 0.08 | 0.00 | 88 | 1025.7 |
| 20260903214550 | 12 | 15 | 6.4 | 14.5 | 0.00 | 0.08 | 0.08 | 89 | 1025.5 |
| 20260903213104 | 12 | 14 | 4.8 | 8.0 | 0.00 | 0.08 | 0.08 | 89 | 1026.0 |
| 20260903211601 | 12 | 15 | 6.4 | 19.3 | 0.00 | 0.08 | 0.08 | 88 | 1025.1 |
| 20260903210105 | 12 | 15 | 8.0 | 16.1 | 0.00 | 0.08 | 0.08 | 88 | 1024.7 |
| 20260903204552 | 12 | 15 | 9.7 | 25.7 | 0.00 | 0.08 | 0.08 | 87 | 1025.3 |
| 20260903203109 | 12 | 15 | 8.0 | 20.9 | 0.00 | 0.08 | 0.08 | 88 | 1025.0 |
| 20260903201553 | 12 | 14 | 8.0 | 19.3 | 0.00 | 0.08 | 0.08 | 89 | 1024.9 |
| 20260903200050 | 12 | 17 | 12.9 | 22.5 | 0.00 | 0.08 | 0.08 | 90 | 1024.1 |
| 20260903194554 | 12 | 15 | 8.0 | 16.1 | 0.00 | 0.08 | 0.08 | 91 | 1023.1 |
| 20260903193100 | 12 | 14 | 9.7 | 19.3 | 0.00 | 0.08 | 0.08 | 90 | 1023.0 |
| 20260903191554 | 12 | 15 | 6.4 | 14.5 | 0.00 | 0.08 | 0.08 | 88 | 1023.5 |
| 20260903190058 | 12 | 192 | 4.8 | 16.1 | 0.00 | 0.08 | 0.08 | 89 | 1023.4 |
| 20260903184557 | 12 | 217 | 8.0 | 25.7 | 0.00 | 0.08 | 0.08 | 88 | 1022.8 |
| 20260903183055 | 12 | 254 | 6.4 | 17.7 | 0.00 | 0.08 | 0.08 | 89 | 1022.7 |
| 20260903181549 | 12 | 230 | 9.7 | 19.3 | 0.00 | 0.08 | 0.08 | 90 | 1022.5 |
| 20260903180054 | 12 | 186 | 9.7 | 17.7 | 0.00 | 0.08 | 0.08 | 89 | 1022.1 |
| 20260903174558 | 12 | 118 | 8.0 | 16.1 | 0.00 | 0.08 | 0.08 | 89 | 1021.8 |
| 20260903173055 | 12 | 17 | 9.7 | 19.3 | 0.00 | 0.08 | 0.08 | 90 | 1021.6 |
| 20260903171601 | 13 | 15 | 11.3 | 25.7 | 0.03 | 0.08 | 0.08 | 89 | 1021.0 |
| 20260903170046 | 13 | 13 | 12.9 | 25.7 | 0.03 | 0.08 | 0.08 | 89 | 1020.6 |
| 20260903164602 | 13 | 13 | 12.9 | 22.5 | 0.05 | 0.08 | 0.08 | 90 | 1020.3 |
| 20260903163101 | 13 | 15 | 11.3 | 19.3 | 0.05 | 0.08 | 0.08 | 91 | 1019.7 |
| 20260903161550 | 13 | 246 | 8.0 | 17.7 | 0.00 | 0.03 | 0.03 | 93 | 1019.3 |
| 20260903160051 | 13 | 202 | 8.0 | 17.7 | 0.00 | 0.03 | 0.03 | 92 | 1018.8 |
| 20260903154559 | 13 | 200 | 8.0 | 29.0 | 0.00 | 0.00 | 0.00 | 90 | 1018.5 |
| 20260903153054 | 14 | 223 | 9.7 | 22.5 | 0.00 | 0.00 | 0.00 | 87 | 1018.3 |
| 20260903151549 | 15 | 205 | 8.0 | 22.5 | 0.00 | 0.00 | 0.00 | 85 | 1018.1 |
| 20260903150059 | 16 | 209 | 9.7 | 19.3 | 0.00 | 0.00 | 0.00 | 81 | 1018.1 |
| 20260903144607 | 16 | 235 | 6.4 | 14.5 | 0.00 | 0.00 | 0.00 | 81 | 1018.0 |
| 20260903143056 | 16 | 237 | 4.8 | 20.9 | 0.00 | 0.00 | 0.00 | 81 | 1017.7 |
| 20260903141555 | 16 | 230 | 8.0 | 16.1 | 0.00 | 0.00 | 0.00 | 81 | 1017.6 |
| 20260903134542 | 15 | 217 | 3.2 | 8.0 | 0.00 | 0.00 | 0.00 | 89 | 1017.2 |
| 20260903133101 | 15 | 232 | 6.4 | 19.3 | 0.00 | 0.00 | 0.00 | 88 | 1016.8 |
| 20260903131553 | 16 | 232 | 8.0 | 16.1 | 0.00 | 0.00 | 0.00 | 85 | 1016.4 |
| 20260903130051 | 16 | 208 | 8.0 | 14.5 | 0.00 | 0.00 | 0.00 | 86 | 1016.3 |
| 20260903124553 | 16 | 194 | 6.4 | 12.9 | 0.00 | 0.00 | 0.00 | 89 | 1016.3 |
| 20260903123058 | 16 | 197 | 6.4 | 17.7 | 0.00 | 0.00 | 0.00 | 85 | 1016.2 |
| 20260903121546 | 17 | 337 | 3.2 | 9.7 | 0.00 | 0.00 | 0.00 | 81 | 1016.2 |
| 20260903114558 | 17 | 202 | 8.0 | 19.3 | 0.00 | 0.00 | 0.00 | 81 | 1016.4 |
| 20260903113131 | 17 | 207 | 6.4 | 14.5 | 0.00 | 0.00 | 0.00 | 81 | 1016.3 |
| 20260903111549 | 16 | 238 | 6.4 | 14.5 | 0.00 | 0.00 | 0.00 | 82 | 1016.3 |
| 20260903110100 | 16 | 189 | 4.8 | 12.9 | 0.00 | 0.00 | 0.00 | 82 | 1016.1 |
| 20260903104557 | 16 | 185 | 3.2 | 6.4 | 0.00 | 0.00 | 0.00 | 82 | 1016.3 |
| 20260903103052 | 16 | 190 | 1.6 | 3.2 | 0.00 | 0.00 | 0.00 | 81 | 1016.2 |
| 20260903101547 | 16 | 0 | 0.0 | 3.2 | 0.00 | 0.00 | 0.00 | 82 | 1016.4 |
| 20260903100047 | 16 | 220 | 1.6 | 6.4 | 0.00 | 0.00 | 0.00 | 84 | 1016.5 |
| 20260903094558 | 15 | 196 | 1.6 | 4.8 | 0.00 | 0.00 | 0.00 | 85 | 1016.6 |
| 20260903093051 | 15 | 278 | 1.6 | 4.8 | 0.00 | 0.00 | 0.00 | 87 | 1016.8 |
| 20260903091551 | 15 | 352 | 1.6 | 8.0 | 0.00 | 0.00 | 0.00 | 87 | 1016.8 |
| 20260903090050 | 15 | 346 | 3.2 | 6.4 | 0.00 | 0.00 | 0.00 | 89 | 1017.0 |
| 20260903084548 | 14 | 343 | 1.6 | 4.8 | 0.00 | 0.00 | 0.00 | 92 | 1016.9 |
| 20260903083056 | 13 | 337 | 1.6 | 6.4 | 0.00 | 0.00 | 0.00 | 92 | 1016.9 |
| 20260903081549 | 13 | 360 | 0.0 | 3.2 | 0.00 | 0.00 | 0.00 | 93 | 1017.0 |
| 20260903080049 | 13 | 352 | 3.2 | 3.2 | 0.00 | 0.00 | 0.00 | 93 | 1017.0 |
| 20260903074557 | 13 | 15 | 1.6 | 3.2 | 0.00 | 0.00 | 0.00 | 94 | 1016.9 |
| 20260903073056 | 13 | 351 | 0.0 | 3.2 | 0.00 | 0.00 | 0.00 | 93 | 1016.8 |
| 20260903071559 | 13 | 186 | 0.0 | 3.2 | 0.00 | 0.00 | 0.00 | 94 | 1016.7 |
| 20260903070047 | 13 | 0 | 0.0 | 1.6 | 0.00 | 0.00 | 0.00 | 94 | 1016.4 |
| 20260903064600 | 12 | 0 | 0.0 | 3.2 | 0.00 | 0.00 | 0.00 | 94 | 1016.2 |
| 20260903063053 | 12 | 0 | 0.0 | 3.2 | 0.00 | 0.00 | 0.00 | 94 | 1016.2 |
| 20260903061558 | 12 | 186 | 1.6 | 3.2 | 0.00 | 0.00 | 0.00 | 93 | 1016.1 |
| 20260903060104 | 12 | 194 | 1.6 | 4.8 | 0.00 | 0.00 | 0.00 | 94 | 1015.7 |
| 20260903054556 | 12 | 198 | 0.0 | 3.2 | 0.00 | 0.00 | 0.00 | 94 | 1015.5 |
| 20260903053053 | 12 | 194 | 1.6 | 6.4 | 0.00 | 0.00 | 0.00 | 94 | 1015.1 |
| 20260903051607 | 12 | 221 | 0.0 | 3.2 | 0.00 | 0.00 | 0.00 | 94 | 1014.8 |
| 20260903050055 | 12 | 196 | 0.0 | 3.2 | 0.00 | 0.00 | 0.00 | 94 | 1014.5 |
| 20260903044559 | 12 | 0 | 0.0 | 3.2 | 0.00 | 0.00 | 0.00 | 94 | 1014.2 |
| 20260903043145 | 12 | 192 | 0.0 | 3.2 | 0.00 | 0.00 | 0.00 | 94 | 1013.9 |
| 20260903041549 | 12 | 0 | 0.0 | 3.2 | 0.00 | 0.00 | 0.00 | 94 | 1014.2 |
| 20260903040047 | 12 | 192 | 1.6 | 4.8 | 0.00 | 0.00 | 0.00 | 94 | 1013.8 |
| 20260903034551 | 12 | 238 | 1.6 | 8.0 | 0.00 | 0.00 | 0.00 | 94 | 1014.4 |
| 20260903033049 | 12 | 186 | 3.2 | 4.8 | 0.00 | 0.00 | 0.00 | 94 | 1014.1 |
| 20260903031545 | 12 | 197 | 1.6 | 3.2 | 0.00 | 0.00 | 0.00 | 94 | 1013.9 |
| 20260903030046 | 12 | 202 | 1.6 | 4.8 | 0.00 | 0.00 | 0.00 | 94 | 1014.2 |
| 20260903024551 | 12 | 180 | 1.6 | 4.8 | 0.00 | 0.00 | 0.00 | 94 | 1014.3 |
| 20260903023045 | 12 | 219 | 3.2 | 8.0 | 0.00 | 0.00 | 0.00 | 94 | 1014.2 |
| 20260903021554 | 12 | 198 | 1.6 | 4.8 | 0.00 | 0.00 | 0.00 | 94 | 1014.2 |
| 20260903020055 | 12 | 221 | 1.6 | 8.0 | 0.00 | 0.00 | 0.00 | 94 | 1014.3 |
| 20260903014553 | 12 | 209 | 3.2 | 8.0 | 0.00 | 0.00 | 0.00 | 94 | 1014.5 |
| 20260903013107 | 12 | 179 | 3.2 | 9.7 | 0.00 | 0.00 | 0.00 | 94 | 1014.5 |
| 20260903011558 | 12 | 219 | 1.6 | 6.4 | 0.00 | 0.00 | 0.00 | 93 | 1014.4 |